Location: *
(46.1833°N, 22.7667°E)
Time: 02:51:44
(UTC+00:00)

Cosmos 2322 - Pass Details

Date: 17 September 2019
Orbit: 839 x 856 km, 71.0° (Epoch: 19 October)

Event Time Altitude Azimuth Distance (km) Brightness Sun altitude
Rises 17:10:49 0° 333° (NNW) 3,438 7.5 -6.6°
Reaches altitude 10° 17:13:17 10° 333° (NNW) 2,499 6.7 -7.0°
Maximum altitude 17:19:02 89° 249° (WSW) 863 3.8 -8.0°
Drops below altitude 10° 17:24:46 10° 156° (SSE) 2,479 5.8 -8.9°
Sets 17:27:12 0° 156° (SSE) 3,409 6.5 -9.4°
